This is the latest recevied weather packets stored in our database for station/object NC4J. If no packets are shown the sender has not sent any weather packets the latest 10 day(s).
| Time | Temp. | Humidity | Pressure | Rain* | Wind** | Luminosity | Snow |
|---|---|---|---|---|---|---|---|
| 1777856880 | 11.67° C | 57% | 1017.3 hPa | 0 mm | - | 0 W/m² | - |
| 1777856576 | 11.67° C | 58% | 1017.3 hPa | 0 mm | - | 0 W/m² | - |
| 1777856273 | 11.67° C | 60% | 1017.2 hPa | 0 mm | - | 0 W/m² | - |
| 1777855970 | 12.22° C | 58% | 1017.1 hPa | 0 mm | - | 0 W/m² | - |
| 1777855667 | 12.22° C | 59% | 1016.9 hPa | 0 mm | - | 0 W/m² | - |
| 1777855365 | 12.22° C | 59% | 1017.1 hPa | 0 mm | - | 0 W/m² | - |
| 1777855061 | 12.78° C | 58% | 1017 hPa | 0 mm | - | 0 W/m² | - |
| 1777854758 | 12.78° C | 58% | 1016.7 hPa | 0 mm | - | 0 W/m² | - |
| 1777854454 | 13.33° C | 56% | 1016.9 hPa | 0 mm | - | 0 W/m² | - |
| 1777854151 | 13.89° C | 55% | 1016.8 hPa | 0 mm | - | 1 W/m² | - |
| 1777853849 | 13.89° C | 55% | 1016.7 hPa | 0 mm | - | 1 W/m² | - |
| 1777853546 | 14.44° C | 53% | 1016.9 hPa | 0 mm | - | 2 W/m² | - |
| 1777853243 | 15° C | 54% | 1016.9 hPa | 0 mm | - | 3 W/m² | - |
| 1777852940 | 15° C | 55% | 1016.7 hPa | 0 mm | - | 4 W/m² | - |
| 1777852638 | 15.56° C | 52% | 1016.8 hPa | 0 mm | - | 6 W/m² | - |
| 1777852335 | 15.56° C | 45% | 1016.8 hPa | 0 mm | - | 8 W/m² | - |
| 1777852033 | 16.11° C | 48% | 1016.6 hPa | 0 mm | - | 10 W/m² | - |
| 1777851731 | 16.67° C | 42% | 1016.6 hPa | 0 mm | - | 11 W/m² | - |
| 1777851427 | 17.78° C | 43% | 1016.4 hPa | 0 mm | - | 15 W/m² | - |
| 1777851123 | 17.22° C | 40% | 1016.5 hPa | 0 mm | - | 22 W/m² | - |
| 1777850820 | 17.78° C | 38% | 1016.3 hPa | 0 mm | - | 31 W/m² | - |
| 1777850517 | 17.78° C | 38% | 1016.4 hPa | 0 mm | - | 46 W/m² | - |
| 1777850216 | 17.78° C | 37% | 1016.3 hPa | 0 mm | - | 27 W/m² | - |
| 1777849911 | 18.33° C | 41% | 1016.3 hPa | 0 mm | - | 55 W/m² | - |
| 1777849608 | 18.89° C | 36% | 1016.3 hPa | 0 mm | - | 55 W/m² | - |
* Rain latest hour (hover to see other rain measurements)
** Current wind speed in m/s (hover to see current wind gust speed)